When you browse on this site, cookies collect data to enhance your experience and personalize the content and advertising you see.
Visit our Privacy Policy to learn more. By continuing to use the site, you agree to this use of cookies and data.
  • In United Kingdom
  • List of Countries
  • For 7 days
  • Water Temperature
  • Satellite Maps
  • Weather Map
  • Weather Widgets
  • user-avatar
    Login

    Hourly Weather Marly-le-Roi

    Today, 25 May, Saturday

    Time Temperature Precipitation Wind Pressure Humidity
    00:00 +13°C° 0 mm 3 mps 750 mmHg 82%
    01:00 +13°C° 0 mm 2 mps 750 mmHg 82%
    02:00 +13°C° 0 mm 2 mps 750 mmHg 82%
    03:00 +13°C° 0 mm 2 mps 750 mmHg 82%
    04:00 +13°C° 0 mm 1 mps 750 mmHg 81%
    05:00 +14°C° 0 mm 1 mps 750 mmHg 79%
    06:00 +14°C° 0 mm 1 mps 751 mmHg 77%
    07:00 +16°C° 0 mm 1 mps 751 mmHg 72%
    08:00 +17°C° 0 mm 2 mps 751 mmHg 67%
    09:00 +19°C° 0 mm 2 mps 751 mmHg 61%
    10:00 +20°C° 0.2 mm 2 mps 751 mmHg 59%
    11:00 +21°C° 0.2 mm 3 mps 751 mmHg 56%
    12:00 +21°C° 0.2 mm 3 mps 751 mmHg 53%
    13:00 +21°C° 0.6 mm 4 mps 751 mmHg 55%
    14:00 +21°C° 0.6 mm 4 mps 751 mmHg 57%
    15:00 +21°C° 0.6 mm 4 mps 750 mmHg 59%
    16:00 +20°C° 0.4 mm 4 mps 750 mmHg 62%
    17:00 +20°C° 0.4 mm 4 mps 750 mmHg 65%
    18:00 +19°C° 0.4 mm 3 mps 750 mmHg 67%
    19:00 +18°C° 0 mm 3 mps 750 mmHg 71%
    20:00 +17°C° 0 mm 3 mps 751 mmHg 75%
    21:00 +16°C° 0 mm 2 mps 751 mmHg 79%
    22:00 +15°C° 0 mm 2 mps 751 mmHg 80%
    23:00 +14°C° 0 mm 2 mps 751 mmHg 81%

    Tomorrow, 26 May, Sunday

    Time Temperature Precipitation Wind Pressure Humidity
    00:00 +13°C° 0 mm 2 mps 751 mmHg 82%
    01:00 +13°C° 0 mm 2 mps 751 mmHg 83%
    02:00 +13°C° 0 mm 2 mps 750 mmHg 83%
    03:00 +13°C° 0 mm 2 mps 750 mmHg 84%
    04:00 +13°C° 0 mm 2 mps 750 mmHg 85%
    05:00 +14°C° 0 mm 2 mps 750 mmHg 85%
    06:00 +14°C° 0 mm 2 mps 750 mmHg 86%
    07:00 +15°C° 0 mm 2 mps 750 mmHg 82%
    08:00 +16°C° 0 mm 3 mps 750 mmHg 78%
    09:00 +18°C° 0 mm 3 mps 750 mmHg 75%
    10:00 +18°C° 0 mm 3 mps 750 mmHg 75%
    11:00 +18°C° 0 mm 3 mps 750 mmHg 75%
    12:00 +18°C° 0 mm 4 mps 750 mmHg 75%
    13:00 +18°C° 0 mm 4 mps 750 mmHg 74%
    14:00 +18°C° 0 mm 4 mps 749 mmHg 74%
    15:00 +18°C° 0 mm 4 mps 749 mmHg 73%
    16:00 +18°C° 0 mm 3 mps 749 mmHg 75%
    17:00 +18°C° 0 mm 3 mps 748 mmHg 76%
    18:00 +18°C° 0 mm 3 mps 748 mmHg 78%
    19:00 +17°C° 0 mm 3 mps 748 mmHg 81%
    20:00 +17°C° 0 mm 3 mps 748 mmHg 84%
    21:00 +16°C° 0 mm 3 mps 748 mmHg 87%
    22:00 +16°C° 0 mm 3 mps 748 mmHg 87%
    23:00 +16°C° 0 mm 3 mps 748 mmHg 87%

    Day after tomorrow, 27 May, Monday

    Time Temperature Precipitation Wind Pressure Humidity
    00:00 +16°C° 0 mm 3 mps 747 mmHg 87%
    01:00 +16°C° 0.4 mm 3 mps 747 mmHg 88%
    02:00 +16°C° 0.4 mm 3 mps 747 mmHg 90%
    03:00 +14°C° 0.4 mm 3 mps 747 mmHg 91%
    04:00 +14°C° 0.2 mm 3 mps 747 mmHg 90%
    05:00 +14°C° 0.2 mm 3 mps 747 mmHg 89%
    06:00 +14°C° 0.2 mm 3 mps 747 mmHg 88%
    07:00 +15°C° 0 mm 4 mps 747 mmHg 81%
    08:00 +17°C° 0 mm 4 mps 747 mmHg 74%
    09:00 +17°C° 0 mm 4 mps 748 mmHg 67%
    10:00 +18°C° 0 mm 4 mps 748 mmHg 61%
    11:00 +19°C° 0 mm 4 mps 748 mmHg 55%
    12:00 +20°C° 0 mm 4 mps 747 mmHg 49%
    13:00 +20°C° 0 mm 4 mps 747 mmHg 50%
    14:00 +20°C° 0 mm 4 mps 747 mmHg 51%
    15:00 +20°C° 0 mm 5 mps 747 mmHg 51%
    16:00 +19°C° 0 mm 5 mps 747 mmHg 54%
    17:00 +17°C° 0 mm 5 mps 747 mmHg 57%
    18:00 +16°C° 0 mm 5 mps 747 mmHg 59%
    19:00 +15°C° 0 mm 4 mps 747 mmHg 63%
    20:00 +13°C° 0 mm 3 mps 747 mmHg 66%
    21:00 +12°C° 0 mm 3 mps 748 mmHg 70%
    22:00 +12°C° 0 mm 3 mps 748 mmHg 72%
    23:00 +12°C° 0 mm 3 mps 747 mmHg 75%

    28 May, Tuesday

    Time Temperature Precipitation Wind Pressure Humidity
    00:00 +11°C° 0 mm 3 mps 747 mmHg 77%
    01:00 +11°C° 0 mm 3 mps 747 mmHg 78%
    02:00 +11°C° 0 mm 3 mps 747 mmHg 79%
    03:00 +10°C° 0 mm 3 mps 747 mmHg 81%
    04:00 +11°C° 0 mm 3 mps 747 mmHg 80%
    05:00 +11°C° 0 mm 3 mps 747 mmHg 79%
    06:00 +11°C° 0 mm 3 mps 747 mmHg 79%
    07:00 +12°C° 0.1 mm 3 mps 747 mmHg 74%
    08:00 +13°C° 0.1 mm 3 mps 747 mmHg 69%
    09:00 +14°C° 0.1 mm 3 mps 747 mmHg 64%
    10:00 +16°C° 0.3 mm 3 mps 747 mmHg 61%
    11:00 +17°C° 0.3 mm 4 mps 747 mmHg 58%
    12:00 +17°C° 0.3 mm 4 mps 747 mmHg 55%
    13:00 +17°C° 0.3 mm 5 mps 747 mmHg 55%
    14:00 +17°C° 0.3 mm 5 mps 747 mmHg 55%
    15:00 +17°C° 0.3 mm 5 mps 747 mmHg 55%
    16:00 +16°C° 0.2 mm 5 mps 748 mmHg 59%
    17:00 +15°C° 0.2 mm 5 mps 748 mmHg 63%
    18:00 +15°C° 0.2 mm 5 mps 749 mmHg 66%
    19:00 +14°C° 0 mm 4 mps 749 mmHg 70%
    20:00 +13°C° 0 mm 4 mps 750 mmHg 75%
    21:00 +12°C° 0 mm 4 mps 750 mmHg 79%
    22:00 +11°C° 0 mm 3 mps 751 mmHg 78%
    23:00 +10°C° 0 mm 3 mps 751 mmHg 78%

    29 May, Wednesday

    Time Temperature Precipitation Wind Pressure Humidity
    00:00 +10°C° 0 mm 3 mps 752 mmHg 77%
    01:00 +9°C° 0 mm 3 mps 752 mmHg 77%
    02:00 +9°C° 0 mm 2 mps 752 mmHg 78%
    03:00 +8°C° 0 mm 2 mps 752 mmHg 78%
    04:00 +9°C° 0 mm 2 mps 753 mmHg 76%
    05:00 +9°C° 0 mm 2 mps 753 mmHg 75%
    06:00 +11°C° 0 mm 1 mps 754 mmHg 73%
    07:00 +12°C° 0 mm 1 mps 754 mmHg 66%
    08:00 +14°C° 0 mm 1 mps 754 mmHg 60%
    09:00 +16°C° 0 mm 1 mps 755 mmHg 53%
    10:00 +18°C° 0 mm 1 mps 755 mmHg 49%
    11:00 +19°C° 0 mm 1 mps 755 mmHg 44%
    12:00 +20°C° 0 mm 2 mps 755 mmHg 40%
    13:00 +20°C° 0 mm 2 mps 755 mmHg 40%
    14:00 +20°C° 0 mm 2 mps 755 mmHg 40%
    15:00 +20°C° 0 mm 2 mps 755 mmHg 41%
    16:00 +20°C° 0 mm 2 mps 756 mmHg 45%
    17:00 +19°C° 0 mm 2 mps 756 mmHg 50%
    18:00 +19°C° 0 mm 2 mps 756 mmHg 54%
    19:00 +17°C° 0 mm 2 mps 756 mmHg 60%
    20:00 +16°C° 0 mm 2 mps 757 mmHg 65%
    21:00 +15°C° 0 mm 2 mps 757 mmHg 71%
    22:00 +14°C° 0 mm 2 mps 757 mmHg 74%
    23:00 +13°C° 0 mm 1 mps 757 mmHg 76%

    30 May, Thursday

    Time Temperature Precipitation Wind Pressure Humidity
    00:00 +12°C° 0 mm 1 mps 757 mmHg 79%
    01:00 +12°C° 0 mm 1 mps 757 mmHg 78%
    02:00 +11°C° 0 mm 1 mps 757 mmHg 76%
    03:00 +11°C° 0 mm 1 mps 757 mmHg 75%
    04:00 +11°C° 0 mm 1 mps 757 mmHg 71%
    05:00 +12°C° 0 mm 1 mps 757 mmHg 68%
    06:00 +12°C° 0 mm 2 mps 757 mmHg 64%
    07:00 +14°C° 0 mm 2 mps 757 mmHg 62%
    08:00 +16°C° 0 mm 2 mps 757 mmHg 60%
    09:00 +18°C° 0 mm 3 mps 757 mmHg 58%
    10:00 +19°C° 0 mm 3 mps 757 mmHg 59%
    11:00 +20°C° 0 mm 4 mps 757 mmHg 60%
    12:00 +21°C° 0 mm 4 mps 756 mmHg 60%
    13:00 +21°C° 0.1 mm 4 mps 756 mmHg 60%
    14:00 +21°C° 0.1 mm 4 mps 756 mmHg 59%
    15:00 +22°C° 0.1 mm 5 mps 756 mmHg 59%
    16:00 +21°C° 0 mm 4 mps 755 mmHg 61%
    17:00 +21°C° 0 mm 4 mps 755 mmHg 63%
    18:00 +20°C° 0 mm 4 mps 755 mmHg 65%
    19:00 +19°C° 0 mm 4 mps 755 mmHg 68%
    20:00 +18°C° 0 mm 3 mps 756 mmHg 72%
    21:00 +17°C° 0 mm 3 mps 756 mmHg 75%
    22:00 +16°C° 0 mm 3 mps 756 mmHg 78%
    23:00 +16°C° 0 mm 3 mps 756 mmHg 80%
    Show more